Location: St. Louis
(38.6270°N, 90.1994°W)
Time: 11:34:50
(UTC-06:00)

S-56A Canister/Altair - Pass Details

Date: 30 November 2021
Orbit: 634 x 2499 km, 38.9° (Epoch: 26 January)

Event Time Altitude Azimuth Distance (km) Brightness Sun altitude
Rises 01:08:28 0° 241° (WSW) 4,817 - -66.1°
Reaches altitude 10° 01:12:11 10° 239° (WSW) 3,526 - -65.5°
Maximum altitude 01:20:25 61° 161° (SSE) 1,157 - -64.2°
Drops below altitude 10° 01:25:58 10° 82° (E) 2,408 - -63.3°
Sets 01:28:05 0° 78° (ENE) 3,201 - -62.9°
